﻿測定場所 (Monitoring sites),日付 (Measurement date),時間 (Measurement time),線量率 最大値 (max) μGy/h,線量率 最小値 (min) μGy/h,線量率 平均値 (average) μGy/h,
新宿 (Shinjuku),2020-07-05,23:01～24:00,0.0417,0.0345,0.0365,
新宿 (Shinjuku),2020-07-05,22:01～23:00,0.0371,0.0331,0.0354,
新宿 (Shinjuku),2020-07-05,21:01～22:00,0.0370,0.0333,0.0354,
新宿 (Shinjuku),2020-07-05,20:01～21:00,0.0373,0.0331,0.0356,
新宿 (Shinjuku),2020-07-05,19:01～20:00,0.0381,0.0334,0.0357,
新宿 (Shinjuku),2020-07-05,18:01～19:00,0.0380,0.0332,0.0358,
新宿 (Shinjuku),2020-07-05,17:01～18:00,0.0386,0.0327,0.0356,
新宿 (Shinjuku),2020-07-05,16:01～17:00,0.0379,0.0336,0.0358,
新宿 (Shinjuku),2020-07-05,15:01～16:00,0.0413,0.0343,0.0365,
新宿 (Shinjuku),2020-07-05,14:01～15:00,0.0441,0.0348,0.0387,
新宿 (Shinjuku),2020-07-05,13:01～14:00,0.0478,0.0392,0.0434,
新宿 (Shinjuku),2020-07-05,12:01～13:00,0.0477,0.0405,0.0447,
新宿 (Shinjuku),2020-07-05,11:01～12:00,0.0478,0.0381,0.0427,
新宿 (Shinjuku),2020-07-05,10:01～11:00,0.0413,0.0335,0.0361,
新宿 (Shinjuku),2020-07-05,09:01～10:00,0.0383,0.0335,0.0357,
新宿 (Shinjuku),2020-07-05,08:01～09:00,0.0395,0.0333,0.0358,
新宿 (Shinjuku),2020-07-05,07:01～08:00,0.0371,0.0338,0.0357,
新宿 (Shinjuku),2020-07-05,06:01～07:00,0.0381,0.0341,0.0358,
新宿 (Shinjuku),2020-07-05,05:01～06:00,0.0379,0.0341,0.0358,
新宿 (Shinjuku),2020-07-05,04:01～05:00,0.0380,0.0333,0.0357,
新宿 (Shinjuku),2020-07-05,03:01～04:00,0.0382,0.0336,0.0360,
新宿 (Shinjuku),2020-07-05,02:01～03:00,0.0386,0.0334,0.0361,
新宿 (Shinjuku),2020-07-05,01:01～02:00,0.0377,0.0336,0.0356,
新宿 (Shinjuku),2020-07-05,00:01～01:00,0.0383,0.0336,0.0356,
新宿 (Shinjuku),2020-07-04,23:01～24:00,0.0376,0.0332,0.0352,
新宿 (Shinjuku),2020-07-04,22:01～23:00,0.0371,0.0329,0.0349,
新宿 (Shinjuku),2020-07-04,21:01～22:00,0.0373,0.0328,0.0351,
新宿 (Shinjuku),2020-07-04,20:01～21:00,0.0380,0.0330,0.0350,
新宿 (Shinjuku),2020-07-04,19:01～20:00,0.0369,0.0324,0.0348,
新宿 (Shinjuku),2020-07-04,18:01～19:00,0.0375,0.0335,0.0350,
新宿 (Shinjuku),2020-07-04,17:01～18:00,0.0372,0.0336,0.0353,
新宿 (Shinjuku),2020-07-04,16:01～17:00,0.0374,0.0332,0.0352,
新宿 (Shinjuku),2020-07-04,15:01～16:00,0.0374,0.0330,0.0351,
新宿 (Shinjuku),2020-07-04,14:01～15:00,0.0370,0.0330,0.0352,
新宿 (Shinjuku),2020-07-04,13:01～14:00,0.0389,0.0339,0.0354,
新宿 (Shinjuku),2020-07-04,12:01～13:00,0.0372,0.0331,0.0352,
新宿 (Shinjuku),2020-07-04,11:01～12:00,0.0387,0.0324,0.0356,
新宿 (Shinjuku),2020-07-04,10:01～11:00,0.0380,0.0339,0.0358,
新宿 (Shinjuku),2020-07-04,09:01～10:00,0.0390,0.0334,0.0362,
新宿 (Shinjuku),2020-07-04,08:01～09:00,0.0403,0.0349,0.0372,
新宿 (Shinjuku),2020-07-04,07:01～08:00,0.0415,0.0345,0.0369,
新宿 (Shinjuku),2020-07-04,06:01～07:00,0.0402,0.0343,0.0366,
新宿 (Shinjuku),2020-07-04,05:01～06:00,0.0428,0.0358,0.0389,
新宿 (Shinjuku),2020-07-04,04:01～05:00,0.0447,0.0368,0.0420,
新宿 (Shinjuku),2020-07-04,03:01～04:00,0.0446,0.0372,0.0405,
新宿 (Shinjuku),2020-07-04,02:01～03:00,0.0426,0.0355,0.0378,
新宿 (Shinjuku),2020-07-04,01:01～02:00,0.0424,0.0350,0.0379,
新宿 (Shinjuku),2020-07-04,00:01～01:00,0.0419,0.0347,0.0368,
新宿 (Shinjuku),2020-07-03,23:01～24:00,0.0391,0.0349,0.0366,
新宿 (Shinjuku),2020-07-03,22:01～23:00,0.0417,0.0341,0.0368,
新宿 (Shinjuku),2020-07-03,21:01～22:00,0.0404,0.0343,0.0369,
新宿 (Shinjuku),2020-07-03,20:01～21:00,0.0408,0.0344,0.0370,
新宿 (Shinjuku),2020-07-03,19:01～20:00,0.0404,0.0354,0.0372,
新宿 (Shinjuku),2020-07-03,18:01～19:00,0.0406,0.0349,0.0371,
新宿 (Shinjuku),2020-07-03,17:01～18:00,0.0392,0.0346,0.0370,
新宿 (Shinjuku),2020-07-03,16:01～17:00,0.0427,0.0354,0.0377,
新宿 (Shinjuku),2020-07-03,15:01～16:00,0.0412,0.0349,0.0380,
新宿 (Shinjuku),2020-07-03,14:01～15:00,0.0414,0.0330,0.0361,
新宿 (Shinjuku),2020-07-03,13:01～14:00,0.0392,0.0330,0.0354,
新宿 (Shinjuku),2020-07-03,12:01～13:00,0.0385,0.0337,0.0355,
新宿 (Shinjuku),2020-07-03,11:01～12:00,0.0393,0.0333,0.0355,
新宿 (Shinjuku),2020-07-03,10:01～11:00,0.0389,0.0336,0.0357,
新宿 (Shinjuku),2020-07-03,09:01～10:00,0.0373,0.0338,0.0354,
新宿 (Shinjuku),2020-07-03,08:01～09:00,0.0375,0.0336,0.0356,
新宿 (Shinjuku),2020-07-03,07:01～08:00,0.0369,0.0336,0.0356,
新宿 (Shinjuku),2020-07-03,06:01～07:00,0.0392,0.0325,0.0357,
新宿 (Shinjuku),2020-07-03,05:01～06:00,0.0384,0.0329,0.0358,
新宿 (Shinjuku),2020-07-03,04:01～05:00,0.0387,0.0330,0.0357,
新宿 (Shinjuku),2020-07-03,03:01～04:00,0.0388,0.0333,0.0356,
新宿 (Shinjuku),2020-07-03,02:01～03:00,0.0374,0.0329,0.0358,
新宿 (Shinjuku),2020-07-03,01:01～02:00,0.0373,0.0340,0.0358,
新宿 (Shinjuku),2020-07-03,00:01～01:00,0.0381,0.0344,0.0359,
新宿 (Shinjuku),2020-07-02,23:01～24:00,0.0382,0.0338,0.0358,
新宿 (Shinjuku),2020-07-02,22:01～23:00,0.0394,0.0336,0.0360,
新宿 (Shinjuku),2020-07-02,21:01～22:00,0.0392,0.0334,0.0357,
新宿 (Shinjuku),2020-07-02,20:01～21:00,0.0377,0.0342,0.0356,
新宿 (Shinjuku),2020-07-02,19:01～20:00,0.0384,0.0334,0.0356,
新宿 (Shinjuku),2020-07-02,18:01～19:00,0.0386,0.0340,0.0356,
新宿 (Shinjuku),2020-07-02,17:01～18:00,0.0385,0.0338,0.0358,
新宿 (Shinjuku),2020-07-02,16:01～17:00,0.0383,0.0335,0.0358,
新宿 (Shinjuku),2020-07-02,15:01～16:00,0.0381,0.0339,0.0356,
新宿 (Shinjuku),2020-07-02,14:01～15:00,0.0387,0.0331,0.0357,
新宿 (Shinjuku),2020-07-02,13:01～14:00,0.0377,0.0329,0.0354,
新宿 (Shinjuku),2020-07-02,12:01～13:00,0.0400,0.0333,0.0358,
新宿 (Shinjuku),2020-07-02,11:01～12:00,0.0373,0.0340,0.0358,
新宿 (Shinjuku),2020-07-02,10:01～11:00,0.0381,0.0333,0.0358,
新宿 (Shinjuku),2020-07-02,09:01～10:00,0.0377,0.0327,0.0354,
新宿 (Shinjuku),2020-07-02,08:01～09:00,0.0370,0.0328,0.0354,
新宿 (Shinjuku),2020-07-02,07:01～08:00,0.0377,0.0325,0.0353,
新宿 (Shinjuku),2020-07-02,06:01～07:00,0.0376,0.0333,0.0354,
新宿 (Shinjuku),2020-07-02,05:01～06:00,0.0380,0.0340,0.0359,
新宿 (Shinjuku),2020-07-02,04:01～05:00,0.0369,0.0325,0.0352,
新宿 (Shinjuku),2020-07-02,03:01～04:00,0.0389,0.0331,0.0357,
新宿 (Shinjuku),2020-07-02,02:01～03:00,0.0375,0.0336,0.0356,
新宿 (Shinjuku),2020-07-02,01:01～02:00,0.0406,0.0338,0.0369,
新宿 (Shinjuku),2020-07-02,00:01～01:00,0.0456,0.0367,0.0404,
新宿 (Shinjuku),2020-07-01,23:01～24:00,0.0423,0.0351,0.0383,
新宿 (Shinjuku),2020-07-01,22:01～23:00,0.0401,0.0344,0.0369,
新宿 (Shinjuku),2020-07-01,21:01～22:00,0.0429,0.0364,0.0387,
新宿 (Shinjuku),2020-07-01,20:01～21:00,0.0440,0.0352,0.0396,
新宿 (Shinjuku),2020-07-01,19:01～20:00,0.0395,0.0340,0.0363,
新宿 (Shinjuku),2020-07-01,18:01～19:00,0.0387,0.0334,0.0351,
新宿 (Shinjuku),2020-07-01,17:01～18:00,0.0371,0.0330,0.0349,
新宿 (Shinjuku),2020-07-01,16:01～17:00,0.0380,0.0333,0.0355,
新宿 (Shinjuku),2020-07-01,15:01～16:00,0.0375,0.0327,0.0354,
新宿 (Shinjuku),2020-07-01,14:01～15:00,0.0398,0.0340,0.0363,
新宿 (Shinjuku),2020-07-01,13:01～14:00,0.0386,0.0328,0.0358,
新宿 (Shinjuku),2020-07-01,12:01～13:00,0.0404,0.0340,0.0359,
新宿 (Shinjuku),2020-07-01,11:01～12:00,0.0407,0.0340,0.0371,
新宿 (Shinjuku),2020-07-01,10:01～11:00,0.0400,0.0345,0.0367,
新宿 (Shinjuku),2020-07-01,09:01～10:00,0.0375,0.0329,0.0355,
新宿 (Shinjuku),2020-07-01,08:01～09:00,0.0371,0.0331,0.0354,
新宿 (Shinjuku),2020-07-01,07:01～08:00,0.0373,0.0329,0.0353,
新宿 (Shinjuku),2020-07-01,06:01～07:00,0.0375,0.0329,0.0354,
新宿 (Shinjuku),2020-07-01,05:01～06:00,0.0391,0.0339,0.0363,
新宿 (Shinjuku),2020-07-01,04:01～05:00,0.0405,0.0346,0.0366,
新宿 (Shinjuku),2020-07-01,03:01～04:00,0.0417,0.0358,0.0374,
新宿 (Shinjuku),2020-07-01,02:01～03:00,0.0413,0.0340,0.0371,
新宿 (Shinjuku),2020-07-01,01:01～02:00,0.0375,0.0333,0.0357,
新宿 (Shinjuku),2020-07-01,00:01～01:00,0.0379,0.0341,0.0360,
新宿 (Shinjuku),2020-06-30,23:01～24:00,0.0426,0.0354,0.0389,
新宿 (Shinjuku),2020-06-30,22:01～23:00,0.0463,0.0401,0.0432,
新宿 (Shinjuku),2020-06-30,21:01～22:00,0.0474,0.0386,0.0426,
新宿 (Shinjuku),2020-06-30,20:01～21:00,0.0433,0.0362,0.0391,
新宿 (Shinjuku),2020-06-30,19:01～20:00,0.0420,0.0358,0.0386,
新宿 (Shinjuku),2020-06-30,18:01～19:00,0.0389,0.0337,0.0363,
新宿 (Shinjuku),2020-06-30,17:01～18:00,0.0414,0.0344,0.0371,
新宿 (Shinjuku),2020-06-30,16:01～17:00,0.0410,0.0361,0.0382,
新宿 (Shinjuku),2020-06-30,15:01～16:00,0.0418,0.0341,0.0371,
新宿 (Shinjuku),2020-06-30,14:01～15:00,0.0411,0.0350,0.0368,
新宿 (Shinjuku),2020-06-30,13:01～14:00,0.0418,0.0356,0.0386,
新宿 (Shinjuku),2020-06-30,12:01～13:00,0.0386,0.0338,0.0358,
新宿 (Shinjuku),2020-06-30,11:01～12:00,0.0370,0.0321,0.0355,
新宿 (Shinjuku),2020-06-30,10:01～11:00,0.0398,0.0332,0.0359,
新宿 (Shinjuku),2020-06-30,09:01～10:00,0.0385,0.0336,0.0357,
新宿 (Shinjuku),2020-06-30,08:01～09:00,0.0387,0.0336,0.0358,
新宿 (Shinjuku),2020-06-30,07:01～08:00,0.0395,0.0337,0.0357,
新宿 (Shinjuku),2020-06-30,06:01～07:00,0.0393,0.0338,0.0359,
新宿 (Shinjuku),2020-06-30,05:01～06:00,0.0396,0.0341,0.0358,
新宿 (Shinjuku),2020-06-30,04:01～05:00,0.0388,0.0330,0.0360,
新宿 (Shinjuku),2020-06-30,03:01～04:00,0.0385,0.0345,0.0361,
新宿 (Shinjuku),2020-06-30,02:01～03:00,0.0383,0.0335,0.0359,
新宿 (Shinjuku),2020-06-30,01:01～02:00,0.0383,0.0334,0.0359,
新宿 (Shinjuku),2020-06-30,00:01～01:00,0.0385,0.0330,0.0357,
新宿 (Shinjuku),2020-06-29,23:01～24:00,0.0382,0.0336,0.0359,
新宿 (Shinjuku),2020-06-29,22:01～23:00,0.0385,0.0329,0.0358,
新宿 (Shinjuku),2020-06-29,21:01～22:00,0.0372,0.0336,0.0357,
新宿 (Shinjuku),2020-06-29,20:01～21:00,0.0381,0.0336,0.0357,
新宿 (Shinjuku),2020-06-29,19:01～20:00,0.0390,0.0332,0.0359,
新宿 (Shinjuku),2020-06-29,18:01～19:00,0.0381,0.0336,0.0356,
新宿 (Shinjuku),2020-06-29,17:01～18:00,0.0382,0.0340,0.0356,
新宿 (Shinjuku),2020-06-29,16:01～17:00,0.0383,0.0342,0.0358,
新宿 (Shinjuku),2020-06-29,15:01～16:00,0.0382,0.0334,0.0354,
新宿 (Shinjuku),2020-06-29,14:01～15:00,0.0376,0.0338,0.0356,
新宿 (Shinjuku),2020-06-29,13:01～14:00,0.0390,0.0330,0.0356,
新宿 (Shinjuku),2020-06-29,12:01～13:00,0.0384,0.0331,0.0357,
新宿 (Shinjuku),2020-06-29,11:01～12:00,0.0396,0.0338,0.0359,
新宿 (Shinjuku),2020-06-29,10:01～11:00,0.0396,0.0335,0.0358,
新宿 (Shinjuku),2020-06-29,09:01～10:00,0.0393,0.0332,0.0357,
新宿 (Shinjuku),2020-06-29,08:01～09:00,0.0380,0.0335,0.0357,
新宿 (Shinjuku),2020-06-29,07:01～08:00,0.0373,0.0339,0.0357,
新宿 (Shinjuku),2020-06-29,06:01～07:00,0.0384,0.0333,0.0356,
新宿 (Shinjuku),2020-06-29,05:01～06:00,0.0383,0.0342,0.0360,
新宿 (Shinjuku),2020-06-29,04:01～05:00,0.0370,0.0337,0.0357,
新宿 (Shinjuku),2020-06-29,03:01～04:00,0.0381,0.0340,0.0359,
新宿 (Shinjuku),2020-06-29,02:01～03:00,0.0384,0.0335,0.0358,
新宿 (Shinjuku),2020-06-29,01:01～02:00,0.0377,0.0334,0.0357,
新宿 (Shinjuku),2020-06-29,00:01～01:00,0.0401,0.0338,0.0364,
